Location: Unspecified
(0.0000°N, 0.0000°E)
Time: 22:56:19
(UTC+00:00)

N. Korean satellite - Pass Details

Date: 15 January 2022
Orbit: 447 x 490 km, 97.3° (Epoch: 27 January)

Event Time Altitude Azimuth Distance (km) Brightness Sun altitude
Rises 05:04:59 0° 1° (N) 2,550 10.0 -15.0°
Reaches altitude 10° 05:07:06 10° 355° (N) 1,674 9.0 -14.5°
Maximum altitude 05:10:34 46° 281° (W) 670 6.8 -13.7°
Drops below altitude 10° 05:14:02 10° 207° (SSW) 1,678 9.2 -12.9°
Sets 05:16:10 0° 201° (SSW) 2,558 10.3 -12.4°
